Date String (YYYY-MM-DD hh:mm:ss) UTC,Instrument flags,Ambient pressure (hPa),Sample flow (lpm),Bypass flow (lpm),Sample temperature (°C),Ambient temperature (°C),ASC tube jacket temperature (°C),LED temperature (°C),Box temperature (°C),Sample RH (%),Span deviation,Mass concentration (μg/m³),Mass concentration (μg/m³),Mass concentration (μg/m³)
DateTimeUTC,F1_M11,P_M11,Q1_M11,Q2_M11,T1_M11,T2_M11,T3_M11,T4_M11,T5_M11,U1_M11,ZSPAN_M11,X0_M11,X2_M11,X1_M11
2022-09-11 22:00:00,,0831.7,4.98,0.00,30.3,29.0,00.0,39.0,32.1,16.4,0001.4,0010.41,0007.53,0007.24
2022-09-11 22:01:00,,0831.7,5.01,0.00,30.3,29.1,00.0,39.0,32.2,16.3,0001.8,0010.47,0007.58,0007.28
2022-09-11 22:02:00,,0831.6,5.00,0.00,30.3,29.2,00.0,39.0,32.2,16.1,0002.3,0010.46,0007.60,0007.31
2022-09-11 22:03:00,,0831.7,5.00,0.00,30.4,29.3,00.0,39.0,32.3,16.0,0002.7,0010.51,0007.61,0007.32
2022-09-11 22:04:00,,0831.6,4.99,0.00,30.4,29.3,00.0,39.0,32.3,16.3,0002.4,0011.08,0007.64,0007.34
2022-09-11 22:05:00,,0831.6,5.01,0.00,30.4,29.3,00.0,39.0,32.3,16.1,0001.8,0011.04,0007.66,0007.37
2022-09-11 22:06:00,,0831.6,4.98,0.00,30.4,28.0,00.0,39.0,32.2,16.5,0001.2,0011.18,0007.72,0007.40
2022-09-11 22:07:00,,0831.5,4.99,0.00,30.4,27.3,00.0,39.0,32.1,16.4,0001.4,0011.28,0007.77,0007.43
2022-09-11 22:08:00,,0831.5,5.00,0.00,30.3,27.4,00.0,39.0,32.0,16.6,0001.4,0011.18,0007.74,0007.42
2022-09-11 22:09:00,,0831.6,5.00,0.00,30.3,27.7,00.0,38.9,32.0,16.4,0001.2,0010.89,0007.71,0007.42
2022-09-11 22:10:00,,0831.5,5.01,0.00,30.2,28.0,00.0,38.9,32.0,16.6,0001.5,0010.74,0007.70,0007.42
2022-09-11 22:11:00,,0831.5,4.99,0.00,30.2,28.2,00.0,38.9,32.0,16.3,0001.4,0011.19,0007.69,0007.42
2022-09-11 22:12:00,,0831.5,5.00,0.00,30.2,28.4,00.0,38.9,32.0,16.2,0001.5,0011.13,0007.66,0007.42
2022-09-11 22:13:00,,0831.5,5.00,0.00,30.2,28.6,00.0,38.9,32.1,16.4,0001.2,0011.19,0007.67,0007.40
2022-09-11 22:14:00,,0831.5,5.00,0.00,30.2,28.8,00.0,38.9,32.1,16.8,0001.1,0011.22,0007.67,0007.40
2022-09-11 22:15:00,,0831.5,5.01,0.00,30.3,28.9,00.0,39.0,32.1,16.3,0001.3,0010.72,0007.64,0007.39
2022-09-11 22:16:00,,0831.5,5.01,0.00,30.3,29.0,00.0,39.0,32.2,16.4,0001.6,0011.01,0007.64,0007.38
2022-09-11 22:17:00,,0831.5,5.00,0.00,30.3,29.1,00.0,39.0,32.2,15.7,0001.9,0010.92,0007.61,0007.37
2022-09-11 22:18:00,,0831.6,4.99,0.00,30.4,29.2,00.0,39.0,32.3,16.6,0001.6,0010.88,0007.59,0007.35
2022-09-11 22:19:00,,0831.5,5.00,0.00,30.4,29.3,00.0,39.0,32.3,16.3,0001.5,0010.89,0007.62,0007.36
2022-09-11 22:20:00,,0831.6,5.00,0.00,30.4,29.4,00.0,39.1,32.3,16.2,0001.8,0010.89,0007.65,0007.37
2022-09-11 22:21:00,,0831.5,5.00,0.00,30.4,29.3,00.0,39.1,32.4,16.2,0001.7,0010.89,0007.67,0007.38
2022-09-11 22:22:00,,0831.5,5.00,0.00,30.5,28.1,00.0,39.1,32.3,15.7,0002.0,0010.38,0007.69,0007.39
2022-09-11 22:23:00,,0831.5,4.99,0.00,30.4,26.9,00.0,39.0,32.1,16.2,0001.9,0010.40,0007.69,0007.37
2022-09-11 22:24:00,,0831.5,5.01,0.00,30.3,26.7,00.0,39.0,32.0,16.7,0001.8,0010.38,0007.69,0007.38
2022-09-11 22:25:00,,0831.5,4.99,0.00,30.2,27.0,00.0,38.9,31.8,16.7,0001.9,0010.37,0007.69,0007.39
2022-09-11 22:26:00,,0831.5,5.00,0.00,30.2,27.3,00.0,38.9,31.8,17.0,0001.7,0010.79,0007.68,0007.38
2022-09-11 22:27:00,,0831.5,5.01,0.00,30.1,27.7,00.0,38.9,31.9,16.4,0001.9,0010.68,0007.68,0007.38
2022-09-11 22:28:00,,0831.5,4.99,0.00,30.1,28.0,00.0,38.9,31.9,16.9,0001.8,0010.93,0007.69,0007.38
2022-09-11 22:29:00,,0831.5,5.01,0.00,30.1,28.2,00.0,38.9,31.9,16.6,0002.3,0011.02,0007.71,0007.40
2022-09-11 22:30:00,,0831.5,5.00,0.00,30.1,28.4,00.0,38.9,32.0,16.7,0002.6,0011.11,0007.72,0007.42
2022-09-11 22:31:00,,0831.5,5.01,0.00,30.1,28.6,00.0,38.9,32.0,16.5,0002.9,0011.09,0007.72,0007.43
2022-09-11 22:32:00,,0831.6,4.99,0.00,30.1,28.7,00.0,38.9,32.0,16.6,0002.3,0011.12,0007.72,0007.45
2022-09-11 22:33:00,,0831.6,5.00,0.00,30.2,28.9,00.0,38.9,32.1,16.6,0002.2,0011.16,0007.74,0007.47
2022-09-11 22:34:00,,0831.5,5.01,0.00,30.2,29.0,00.0,38.9,32.1,16.4,0001.7,0011.19,0007.79,0007.51
2022-09-11 22:35:00,,0831.5,4.99,0.00,30.2,29.1,00.0,38.9,32.1,16.4,0001.4,0011.17,0007.79,0007.52
2022-09-11 22:36:00,,0831.5,5.00,0.00,30.2,29.1,00.0,38.9,32.2,16.4,0001.4,0011.15,0007.80,0007.54
2022-09-11 22:37:00,,0831.6,5.00,0.00,30.3,29.2,00.0,38.9,32.2,16.2,0001.3,0010.78,0007.83,0007.57
2022-09-11 22:38:00,,0831.6,5.01,0.00,30.3,29.3,00.0,39.0,32.2,16.5,0000.8,0010.44,0007.86,0007.59
2022-09-11 22:39:00,,0831.5,4.98,0.00,30.4,29.3,00.0,39.0,32.3,16.4,0000.9,0010.23,0007.88,0007.61
2022-09-11 22:40:00,,0831.5,5.00,0.00,30.4,29.3,00.0,39.0,32.3,16.9,0001.0,0010.15,0007.88,0007.62
2022-09-11 22:41:00,,0831.5,4.99,0.00,30.4,28.3,00.0,39.0,32.3,16.9,0000.7,0010.05,0007.88,0007.62
2022-09-11 22:42:00,,0831.5,5.01,0.00,30.4,27.4,00.0,39.0,32.2,16.5,0000.5,0010.67,0007.88,0007.62
2022-09-11 22:43:00,,0831.5,4.99,0.00,30.3,27.4,00.0,38.9,32.1,16.9,0000.8,0010.67,0007.89,0007.62
2022-09-11 22:44:00,,0831.5,4.99,0.00,30.2,27.6,00.0,38.9,32.0,17.3,0000.8,0011.72,0007.88,0007.61
2022-09-11 22:45:00,,0831.5,5.01,0.00,30.2,27.8,00.0,38.9,32.0,18.3,0000.7,0011.88,0007.87,0007.60
2022-09-11 22:46:00,,0831.5,4.99,0.00,30.2,28.1,00.0,38.9,32.0,17.2,0001.0,0011.92,0007.89,0007.62
2022-09-11 22:47:00,,0831.4,5.01,0.00,30.2,28.4,00.0,38.9,32.0,16.8,0001.3,0011.94,0007.90,0007.62
2022-09-11 22:48:00,,0831.5,5.01,0.00,30.2,28.6,00.0,38.9,32.1,17.2,0001.3,0011.93,0007.90,0007.63
2022-09-11 22:49:00,,0831.5,5.01,0.00,30.2,28.8,00.0,38.9,32.1,16.8,0001.3,0012.51,0007.90,0007.64
2022-09-11 22:50:00,,0831.5,5.01,0.00,30.3,28.9,00.0,38.9,32.1,16.7,0001.5,0012.61,0007.89,0007.65
2022-09-11 22:51:00,,0831.4,4.99,0.00,30.3,29.0,00.0,39.0,32.2,17.1,0001.1,0012.60,0007.88,0007.65
2022-09-11 22:52:00,,0831.4,5.01,0.00,30.3,29.1,00.0,39.0,32.2,17.2,0000.9,0012.56,0007.87,0007.64
2022-09-11 22:53:00,,0831.4,4.99,0.00,30.3,29.2,00.0,39.0,32.2,16.8,0001.0,0011.93,0007.86,0007.62
2022-09-11 22:54:00,,0831.4,5.02,0.00,30.4,29.3,00.0,39.0,32.3,17.4,0000.8,0011.89,0007.86,0007.63
2022-09-11 22:55:00,,0831.4,4.99,0.00,30.4,29.3,00.0,39.0,32.3,17.3,0001.0,0010.80,0007.87,0007.64
2022-09-11 22:56:00,,0831.3,5.01,0.00,30.4,28.1,00.0,39.0,32.3,17.5,0001.0,0010.77,0007.89,0007.64
2022-09-11 22:57:00,,0831.4,5.00,0.00,30.4,27.3,00.0,39.0,32.2,17.0,0000.9,0010.81,0007.87,0007.63
2022-09-11 22:58:00,,0831.3,5.00,0.00,30.3,27.4,00.0,39.0,32.1,16.9,0000.8,0011.44,0007.88,0007.63
2022-09-11 22:59:00,,0831.4,5.00,0.00,30.3,27.6,00.0,38.9,32.0,16.6,0000.6,0012.18,0007.90,0007.62
